Orbital Elements
Epoch 2021 Mar. 7.0 TT = JDT 2459280.5
T 2021 Mar. 2.70004 TT Rudenko
q 5.9464951 (2000.0) P Q
z +0.0002932 Peri. 112.27626 +0.60544740 +0.57396896
+/-0.0000009 Node 139.52069 -0.19750481 -0.56273490
e 0.9982563 Incl. 121.86226 +0.77098982 -0.59488576
From 686 observations 2019 Jan. 17-2021 Jan. 18, mean residual 0".5.
|